Weather in Uzytamak

Russia / Republic of Bashkortostan     54°38′45″N   55°33′19″E
temp.,
°C
wind,
m/s
gust,
m/s
humid.,
%
clouds,
%
prec.,
mm/h
press.,
hPa
HPBL,
m
2 march, tue
tue223:00−20w339731 0.0 101925
02:00−21sw33963 0.0 101824
05:00−22ssw44961 0.0 101772
08:00−21s599546 0.0 1014193
11:00−17s8149573 0.0 1012352
14:00−12ssw91594100 0.6 1008593
17:00−9ssw91593100 1.4 1005683
20:00−8ssw81593100 1.1 1003655
3 march, wed
wed323:00−5ssw81594100 2.0 1001638
02:00−4ssw61490100 0.4 999491
05:00−5sw5119293 0.4 999247
08:00−6sw479356 0.0 999136
11:00−3wsw599275 0.0 1000571
14:00−3wsw579290 0.1 1000504
17:00−3wsw588994 0.1 1001627
20:00−4wsw4993100 0.1 1001436
4 march, thu
thu423:00−6sw41094100 0.1 1002285
02:00−7wsw5119494 0.1 1002354
05:00−8wnw5119293 0.3 1004428
08:00−13w599568 0.0 1005195
11:00−10wsw599260 0.0 1007291
14:00−7sw699071 0.0 1006464
17:00−6sw6118985 0.1 1006558
20:00−7ssw51491100 0.0 1005551
5 march, fri
fri523:00−6ssw81593100 0.6 1003773
02:00−3sw91892100 1.3 1000955
05:00−1sw101884100 1.4 9981003
08:00−1sw101789100 0.1 999987
11:00−1sw101789100 0.4 1001856
14:000wsw81296100 0.3 1003961
17:00−1wnw4989100 1.6 1005569
20:00−3w3689100 0.2 1006202
6 march, sat
sat623:00−5wnw3391100 0.2 100962
02:00−11wnw3394100 0.0 101037
05:00−12nnw0194100 0.0 101121
08:00−10e2295100 0.0 100965
11:00−7e4796100 1.8 1005243
14:00+1ssw81599100 2.9 1000802
17:00+1ssw91698100 4.0 997924
20:00+1sw91598100 0.9 997798